Weather History for Alturas, CA

Change the Weather History Date:

Wednesday, November 7, 2012

  Actual Average Record
Temperature  
Mean Temperature 45 °F 39 °F  
Max Temperature 65 °F 54 °F 74 °F (1949)
Min Temperature 24 °F 25 °F 9 °F (2001)
Degree Days  
Heating Degree Days 20 26  
Month to date heating degree days 137 174  
Since 1 July heating degree days 794 1117  
Cooling Degree Days 0 0  
Month to date cooling degree days 0 0  
Year to date cooling degree days 224 156  
Moisture  
Dew Point 32 °F    
Average Humidity 64    
Maximum Humidity 92    
Minimum Humidity 36    
Precipitation  
Precipitation 0.00 in 0.06 in 0.93 in (2005)
Month to date precipitation T 0.44  
Year to date precipitation 6.25 11.11  
Sea Level Pressure  
Sea Level Pressure 29.98 in    
Wind  
Wind Speed 4 mph (West)    
Max Wind Speed 20 mph    
Max Gust Speed 25 mph    
Visibility 10 miles    
Events      
T = Trace of Precipitation, MM = Missing Value Source: NWS Daily Summary

Daily Weather History Graph

Daily Weather History Graph

Search for Another Location

Airport:

Trip Planner

Search our weather history database for the weather conditions in past years. The results will help you decide how hot, cold, wet, or windy it might be!

Date:

Astronomy

Nov. 07, 2012 Rise Set
Actual Time 6:41 AM PST 4:49 PM PST
Civil Twilight 6:12 AM PST 5:18 PM PST
Nautical Twilight 5:39 AM PST 5:51 PM PST
Astronomical Twilight 5:07 AM PST 6:24 PM PST
Moon No Moon Rise 1:05 PM PST (11/7)
Length of Visible Light 11h 06m
Length of Day
10h 07m
Last Quarter, 42% of the Moon is Illuminated
Nov 7
Last Quarter
Nov 13
New
Nov 20
First Quarter
Nov 28
Full
Dec 6
Last Quarter

Hourly Weather History & Observations

Time (PST) Temp. Windchill Dew Point Humidity Pressure Visibility Wind Dir Wind Speed Gust Speed Precip Events Conditions
12:55 AM 30.9 °F - 26.1 °F 82% 30.10 in 10.0 mi Calm Calm - N/A   Clear
1:55 AM 30.0 °F - 26.1 °F 85% 30.10 in 10.0 mi Calm Calm - N/A   Clear
2:55 AM 27.0 °F - 24.1 °F 89% 30.09 in 10.0 mi Calm Calm - N/A   Clear
3:55 AM 30.0 °F - 27.0 °F 88% 30.07 in 10.0 mi Calm Calm - N/A   Clear
4:55 AM 26.1 °F - 23.0 °F 88% 30.10 in 10.0 mi Calm Calm - N/A   Clear
5:55 AM 24.1 °F - 21.0 °F 88% 30.11 in 10.0 mi Calm Calm - N/A   Clear
6:55 AM 25.0 °F 20.7 °F 23.0 °F 92% 30.13 in 10.0 mi West 3.5 mph - N/A   Clear
7:55 AM 36.0 °F - 30.9 °F 82% 30.10 in 10.0 mi Calm Calm - N/A   Clear
8:55 AM 46.9 °F - 33.1 °F 59% 30.08 in 10.0 mi Calm Calm - N/A   Clear
9:55 AM 55.0 °F - 33.1 °F 43% 30.06 in 10.0 mi South 3.5 mph - N/A   Clear
10:55 AM 60.1 °F - 36.0 °F 41% 30.02 in 10.0 mi Variable 5.8 mph - N/A   Clear
11:55 AM 63.0 °F - 35.1 °F 35% 29.97 in 10.0 mi SW 9.2 mph - N/A   Clear
12:55 PM 64.0 °F - 37.0 °F 37% 29.95 in 10.0 mi West 10.4 mph 18.4 mph N/A   Clear
1:55 PM 63.0 °F - 37.0 °F 38% 29.94 in 10.0 mi West 11.5 mph - N/A   Clear
2:55 PM 64.0 °F - 37.0 °F 37% 29.94 in 10.0 mi West 16.1 mph 23.0 mph N/A   Clear
3:55 PM 60.1 °F - 37.0 °F 42% 29.93 in 10.0 mi WSW 11.5 mph - N/A   Clear
4:55 PM 55.9 °F - 37.0 °F 49% 29.95 in 10.0 mi SW 5.8 mph - N/A   Clear
5:55 PM 50.0 °F - 37.0 °F 61% 29.96 in 10.0 mi NW 3.5 mph - N/A   Clear
6:55 PM 52.0 °F - 37.9 °F 59% 29.93 in 10.0 mi West 11.5 mph - N/A   Clear
7:55 PM 48.0 °F - 37.0 °F 66% 29.90 in 10.0 mi Calm Calm - N/A   Clear
8:55 PM 48.0 °F - 37.9 °F 68% 29.85 in 10.0 mi Calm Calm - N/A   Partly Cloudy
9:55 PM 44.1 °F - 37.0 °F 76% 29.81 in 10.0 mi Calm Calm - N/A   Mostly Cloudy
10:55 PM 41.0 °F - 36.0 °F 82% 29.79 in 10.0 mi Calm Calm - N/A   Mostly Cloudy
11:55 PM 37.9 °F - 33.1 °F 83% 29.76 in 8.0 mi Calm Calm - N/A   Scattered Clouds